Location: Cambridge (historical)
(38.6883°N, 119.0140°W)
Time: 16:38:22
(UTC+00:00)

Cosmos 2322 Rocket - Pass Details

Date: 29 October 2020
Orbit: 832 x 851 km, 71.0° (Epoch: 23 November)

Event Time Altitude Azimuth Distance (km) Brightness Sun altitude
Rises 13:23:14 0° 343° (NNW) 3,416 5.1 -11.7°
Reaches altitude 10° 13:25:49 10° 350° (N) 2,475 4.4 -11.2°
Maximum altitude 13:31:14 44° 62° (ENE) 1,153 3.4 -10.2°
Drops below altitude 10° 13:36:35 10° 134° (SE) 2,449 5.6 -9.1°
Sets 13:39:07 0° 141° (SE) 3,376 6.2 -8.6°
